TGW254 WSSS-WIPP

Flight info

Callsign TGW254
Flight time 0h 48m
Altitude 39000
Route ANITO7A ANITO B470 PKP/N0455F380 W23 TODAK TODAK1D
Aircraft E290/M-SDFRGIWHY/S

Departure

Time 2026-05-05 11:50
Airport Singapore Changi Airport (WSSS)

Arrival

Time 2026-05-05 12:38
Airport Sultan Mahmud Badaruddin II Airport (WIPP)
Time Latitude Longitude Altitude Speed Heading
2026-05-05 11:33 1.36558 103.99052 29 ft 0 kts 264°
2026-05-05 11:34 1.36558 103.99057 29 ft 3 kts 263°
2026-05-05 11:34 1.36558 103.99052 29 ft 0 kts 264°
2026-05-05 11:39 1.36559 103.99063 29 ft 4 kts 246°
2026-05-05 11:39 1.36559 103.99065 29 ft 3 kts 264°
2026-05-05 11:39 1.36562 103.99091 29 ft 4 kts 263°
2026-05-05 11:40 1.36565 103.99115 29 ft 4 kts 289°
2026-05-05 11:40 1.36550 103.99132 29 ft 4 kts 342°
2026-05-05 11:40 1.36532 103.99137 29 ft 0 kts 353°
2026-05-05 11:42 1.36537 103.99136 29 ft 2 kts 353°
2026-05-05 11:42 1.36563 103.99133 29 ft 5 kts 353°
2026-05-05 11:43 1.36603 103.99125 29 ft 3 kts 340°
2026-05-05 11:43 1.36628 103.99121 29 ft 5 kts 351°
2026-05-05 11:43 1.36650 103.99122 29 ft 8 kts 15°
2026-05-05 11:44 1.36678 103.99181 29 ft 13 kts 103°
2026-05-05 11:44 1.36633 103.99278 29 ft 17 kts 114°
2026-05-05 11:44 1.36584 103.99396 29 ft 20 kts 113°
2026-05-05 11:44 1.36526 103.99528 29 ft 22 kts 112°
2026-05-05 11:45 1.36464 103.99675 29 ft 24 kts 114°
2026-05-05 11:45 1.36410 103.99773 29 ft 13 kts 143°
2026-05-05 11:45 1.36321 103.99753 29 ft 16 kts 203°
2026-05-05 11:45 1.36205 103.99704 29 ft 21 kts 203°
2026-05-05 11:46 1.36055 103.99640 29 ft 26 kts 203°
2026-05-05 11:46 1.35874 103.99564 29 ft 31 kts 203°
2026-05-05 11:46 1.35669 103.99477 29 ft 33 kts 202°
2026-05-05 11:46 1.35457 103.99388 29 ft 34 kts 202°
2026-05-05 11:47 1.35232 103.99294 29 ft 35 kts 203°
2026-05-05 11:47 1.35081 103.99230 29 ft 36 kts 203°
2026-05-05 11:47 1.34770 103.99099 29 ft 37 kts 203°
2026-05-05 11:47 1.34530 103.98997 29 ft 38 kts 204°
2026-05-05 11:48 1.34034 103.98788 29 ft 39 kts 204°
2026-05-05 11:48 1.33778 103.98682 29 ft 40 kts 202°
2026-05-05 11:48 1.33641 103.98627 29 ft 15 kts 191°
2026-05-05 11:49 1.33584 103.98660 29 ft 16 kts 111°
2026-05-05 11:49 1.33541 103.98763 29 ft 9 kts 112°
2026-05-05 11:49 1.33556 103.98783 29 ft 8 kts 24°
2026-05-05 11:49 1.33828 103.98897 29 ft 86 kts 22°
2026-05-05 11:50 1.34629 103.99234 98 ft 155 kts 22°
2026-05-05 11:50 1.35723 103.99715 752 ft 188 kts 23°
2026-05-05 11:50 1.36986 104.00332 1627 ft 207 kts 23°
2026-05-05 11:50 1.38312 104.00961 2636 ft 227 kts 21°
2026-05-05 11:51 1.39894 104.01648 3306 ft 263 kts 22°
2026-05-05 11:51 1.41495 104.02663 4512 ft 270 kts 45°
2026-05-05 11:51 1.42522 104.04261 5876 ft 279 kts 74°
2026-05-05 11:51 1.42521 104.06188 7289 ft 282 kts 104°
2026-05-05 11:52 1.41500 104.07857 8551 ft 288 kts 138°
2026-05-05 11:52 1.39826 104.08978 9866 ft 291 kts 151°
2026-05-05 11:52 1.37981 104.10010 10584 ft 325 kts 150°
2026-05-05 11:52 1.35962 104.11230 11349 ft 348 kts 149°
2026-05-05 11:53 1.33860 104.12479 12585 ft 353 kts 149°
2026-05-05 11:53 1.31728 104.13737 13798 ft 359 kts 149°
2026-05-05 11:53 1.29563 104.15020 14933 ft 365 kts 149°
2026-05-05 11:53 1.27360 104.16326 16065 ft 372 kts 148°
2026-05-05 11:54 1.25110 104.17663 17047 ft 380 kts 148°
2026-05-05 11:54 1.22822 104.19023 17990 ft 386 kts 148°
2026-05-05 11:54 1.20518 104.20384 18864 ft 392 kts 149°
2026-05-05 11:54 1.18041 104.21585 19703 ft 398 kts 156°
2026-05-05 11:55 1.15468 104.22643 20455 ft 401 kts 155°
2026-05-05 11:55 1.12884 104.23749 21169 ft 406 kts 155°
2026-05-05 11:55 1.10277 104.24876 21887 ft 410 kts 155°
2026-05-05 11:55 1.07649 104.26030 22564 ft 415 kts 154°
2026-05-05 11:56 1.04998 104.27204 23233 ft 419 kts 154°
2026-05-05 11:56 1.02320 104.28389 23863 ft 423 kts 154°
2026-05-05 11:56 0.99624 104.29588 24472 ft 426 kts 154°
2026-05-05 11:56 0.96903 104.30796 25043 ft 430 kts 154°
2026-05-05 11:57 0.94159 104.32016 25590 ft 434 kts 154°
2026-05-05 11:57 0.91388 104.33250 26099 ft 437 kts 154°
2026-05-05 11:57 0.88602 104.34491 26577 ft 440 kts 154°
2026-05-05 11:57 0.85793 104.35741 27039 ft 443 kts 154°
2026-05-05 11:58 0.82969 104.37000 27470 ft 447 kts 155°
2026-05-05 11:58 0.80126 104.38265 27917 ft 449 kts 155°
2026-05-05 11:58 0.77263 104.39540 28338 ft 452 kts 155°
2026-05-05 11:58 0.74383 104.40823 28743 ft 454 kts 155°
2026-05-05 11:59 0.71495 104.42110 29272 ft 454 kts 155°
2026-05-05 11:59 0.68619 104.43390 29824 ft 452 kts 155°
2026-05-05 11:59 0.65752 104.44667 30345 ft 450 kts 155°
2026-05-05 11:59 0.62897 104.45939 30831 ft 449 kts 155°
2026-05-05 12:00 0.60041 104.47211 31259 ft 449 kts 155°
2026-05-05 12:00 0.57225 104.48462 31728 ft 448 kts 155°
2026-05-05 12:00 0.54375 104.49733 32149 ft 448 kts 155°
2026-05-05 12:00 0.51534 104.50999 32620 ft 447 kts 155°
2026-05-05 12:01 0.48698 104.52262 33062 ft 446 kts 155°
2026-05-05 12:01 0.45862 104.53526 33504 ft 446 kts 155°
2026-05-05 12:01 0.43033 104.54787 33909 ft 445 kts 155°
2026-05-05 12:01 0.40207 104.56046 34300 ft 445 kts 155°
2026-05-05 12:02 0.37382 104.57302 34697 ft 444 kts 155°
2026-05-05 12:02 0.34562 104.58557 35081 ft 443 kts 155°
2026-05-05 12:02 0.31747 104.59809 35431 ft 443 kts 155°
2026-05-05 12:02 0.28932 104.61057 35796 ft 442 kts 155°
2026-05-05 12:03 0.26118 104.62300 36171 ft 441 kts 155°
2026-05-05 12:03 0.23309 104.63545 36476 ft 442 kts 155°
2026-05-05 12:03 0.20500 104.64791 36795 ft 442 kts 155°
2026-05-05 12:03 0.17689 104.66039 37116 ft 441 kts 155°
2026-05-05 12:04 0.14880 104.67284 37438 ft 441 kts 155°
2026-05-05 12:04 0.12078 104.68528 37735 ft 441 kts 155°
2026-05-05 12:04 0.09272 104.69776 38054 ft 440 kts 155°
2026-05-05 12:04 0.06474 104.71020 38356 ft 440 kts 155°
2026-05-05 12:05 0.03676 104.72263 38641 ft 440 kts 155°
2026-05-05 12:05 0.00885 104.73506 38907 ft 440 kts 155°
2026-05-05 12:05 -0.04766 104.76019 38958 ft 449 kts 155°
2026-05-05 12:06 -0.10511 104.78576 39004 ft 453 kts 155°
2026-05-05 12:06 -0.16240 104.81125 39017 ft 454 kts 155°
2026-05-05 12:07 -0.22005 104.83689 39006 ft 453 kts 155°
2026-05-05 12:07 -0.27760 104.86235 39002 ft 452 kts 159°
2026-05-05 12:08 -0.33835 104.87812 39007 ft 451 kts 166°
2026-05-05 12:08 -0.39957 104.89217 39000 ft 450 kts 166°
2026-05-05 12:09 -0.46059 104.90630 38998 ft 450 kts 166°
2026-05-05 12:09 -0.52155 104.92048 39013 ft 449 kts 166°
2026-05-05 12:10 -0.58204 104.93458 39022 ft 449 kts 166°
2026-05-05 12:10 -0.64291 104.94878 39010 ft 449 kts 166°
2026-05-05 12:11 -0.70383 104.96300 39020 ft 449 kts 166°
2026-05-05 12:11 -0.76468 104.97721 39021 ft 449 kts 166°
2026-05-05 12:12 -0.82553 104.99142 39031 ft 449 kts 166°
2026-05-05 12:12 -0.88642 105.00564 38444 ft 448 kts 166°
2026-05-05 12:13 -0.91661 105.01269 37682 ft 444 kts 166°
2026-05-05 12:13 -0.94598 105.01954 37677 ft 425 kts 166°
2026-05-05 12:13 -1.00416 105.03315 37686 ft 435 kts 166°
2026-05-05 12:14 -1.06352 105.04704 37727 ft 446 kts 166°
2026-05-05 12:14 -1.12469 105.06134 37737 ft 449 kts 166°
2026-05-05 12:15 -1.18506 105.07544 37737 ft 446 kts 166°
2026-05-05 12:15 -1.21489 105.08240 37720 ft 434 kts 166°
2026-05-05 12:15 -1.24414 105.08924 37698 ft 430 kts 166°
2026-05-05 12:16 -1.30267 105.10291 37316 ft 433 kts 166°
2026-05-05 12:16 -1.36109 105.11641 36867 ft 435 kts 166°
2026-05-05 12:17 -1.39081 105.12318 36230 ft 436 kts 166°
2026-05-05 12:17 -1.42030 105.12996 35602 ft 434 kts 166°
2026-05-05 12:17 -1.44966 105.13675 35008 ft 432 kts 166°
2026-05-05 12:17 -1.47892 105.14356 34420 ft 432 kts 166°
2026-05-05 12:18 -1.50820 105.15040 33848 ft 433 kts 166°
2026-05-05 12:18 -1.53760 105.15729 33273 ft 435 kts 166°
2026-05-05 12:18 -1.56718 105.16421 32683 ft 438 kts 166°
2026-05-05 12:18 -1.59692 105.17117 32103 ft 441 kts 166°
2026-05-05 12:19 -1.62696 105.17819 31516 ft 445 kts 166°
2026-05-05 12:19 -1.65735 105.18528 30906 ft 449 kts 165°
2026-05-05 12:19 -1.68786 105.19242 30317 ft 451 kts 165°
2026-05-05 12:19 -1.71802 105.19949 29723 ft 453 kts 165°
2026-05-05 12:20 -1.74880 105.20671 29120 ft 454 kts 165°
2026-05-05 12:20 -1.77999 105.21400 28495 ft 455 kts 165°
2026-05-05 12:20 -1.81069 105.22117 27895 ft 450 kts 165°
2026-05-05 12:20 -1.84063 105.22815 27306 ft 446 kts 165°
2026-05-05 12:21 -1.87061 105.23517 26716 ft 441 kts 165°
2026-05-05 12:21 -1.90043 105.24212 26130 ft 437 kts 165°
2026-05-05 12:21 -1.92986 105.24900 25556 ft 432 kts 165°
2026-05-05 12:21 -1.95897 105.25579 24980 ft 428 kts 165°
2026-05-05 12:22 -1.98786 105.26254 24413 ft 424 kts 165°
2026-05-05 12:22 -2.01652 105.26927 23850 ft 421 kts 165°
2026-05-05 12:22 -2.04490 105.27585 23294 ft 417 kts 165°
2026-05-05 12:22 -2.07322 105.28160 22348 ft 420 kts 173°
2026-05-05 12:23 -2.10251 105.27841 20955 ft 430 kts 196°
2026-05-05 12:23 -2.12954 105.26553 19908 ft 427 kts 208°
2026-05-05 12:23 -2.15505 105.25177 19382 ft 408 kts 205°
2026-05-05 12:23 -2.18041 105.24009 18848 ft 394 kts 202°
2026-05-05 12:24 -2.20537 105.22976 18322 ft 386 kts 201°
2026-05-05 12:24 -2.23032 105.21987 17814 ft 386 kts 200°
2026-05-05 12:24 -2.25533 105.21011 17300 ft 385 kts 200°
2026-05-05 12:24 -2.28023 105.20042 16789 ft 383 kts 200°
2026-05-05 12:25 -2.30500 105.19080 16277 ft 380 kts 200°
2026-05-05 12:25 -2.32926 105.18146 15778 ft 377 kts 200°
2026-05-05 12:25 -2.35398 105.17203 15271 ft 374 kts 200°
2026-05-05 12:25 -2.37788 105.16302 14780 ft 371 kts 200°
2026-05-05 12:26 -2.40190 105.15389 14287 ft 369 kts 200°
2026-05-05 12:26 -2.42584 105.14466 13792 ft 369 kts 201°
2026-05-05 12:26 -2.44964 105.13524 13318 ft 367 kts 201°
2026-05-05 12:26 -2.47326 105.12596 12814 ft 361 kts 201°
2026-05-05 12:27 -2.49659 105.11684 12337 ft 360 kts 201°
2026-05-05 12:27 -2.51984 105.10793 11855 ft 353 kts 200°
2026-05-05 12:27 -2.54258 105.09927 11381 ft 345 kts 201°
2026-05-05 12:27 -2.56466 105.09082 10911 ft 335 kts 200°
2026-05-05 12:28 -2.58606 105.08267 10490 ft 324 kts 201°
2026-05-05 12:28 -2.60669 105.07479 10208 ft 312 kts 201°
2026-05-05 12:28 -2.62673 105.06706 9780 ft 306 kts 201°
2026-05-05 12:28 -2.64637 105.05948 9392 ft 298 kts 201°
2026-05-05 12:29 -2.66558 105.05203 8991 ft 294 kts 201°
2026-05-05 12:29 -2.68449 105.04466 8600 ft 290 kts 201°
2026-05-05 12:29 -2.70323 105.03731 8215 ft 289 kts 201°
2026-05-05 12:29 -2.72186 105.02994 7831 ft 287 kts 201°
2026-05-05 12:30 -2.74042 105.02261 7451 ft 286 kts 201°
2026-05-05 12:30 -2.75890 105.01541 7070 ft 284 kts 201°
2026-05-05 12:30 -2.77728 105.00826 6691 ft 282 kts 200°
2026-05-05 12:30 -2.79555 105.00128 6317 ft 280 kts 200°
2026-05-05 12:31 -2.81371 104.99427 5942 ft 279 kts 200°
2026-05-05 12:31 -2.83175 104.98729 5570 ft 277 kts 200°
2026-05-05 12:31 -2.84968 104.98034 5202 ft 276 kts 200°
2026-05-05 12:31 -2.86755 104.97340 4838 ft 275 kts 200°
2026-05-05 12:32 -2.88534 104.96651 4468 ft 274 kts 200°
2026-05-05 12:32 -2.90281 104.95972 4106 ft 272 kts 200°
2026-05-05 12:32 -2.92051 104.95320 3746 ft 271 kts 198°
2026-05-05 12:32 -2.93832 104.94707 3387 ft 269 kts 198°
2026-05-05 12:33 -2.95582 104.94090 3187 ft 264 kts 199°
2026-05-05 12:33 -2.97112 104.93091 3001 ft 266 kts 229°
2026-05-05 12:33 -2.97823 104.91427 3001 ft 260 kts 264°
2026-05-05 12:33 -2.97735 104.89727 2994 ft 230 kts 275°
2026-05-05 12:34 -2.97422 104.88242 2963 ft 211 kts 291°
2026-05-05 12:34 -2.96834 104.86931 2931 ft 202 kts 294°
2026-05-05 12:34 -2.96339 104.85633 2897 ft 198 kts 289°
2026-05-05 12:34 -2.95850 104.84360 2867 ft 194 kts 293°
2026-05-05 12:35 -2.95293 104.83094 2599 ft 199 kts 294°
2026-05-05 12:35 -2.94759 104.81822 2328 ft 196 kts 292°
2026-05-05 12:35 -2.94258 104.80596 2094 ft 184 kts 292°
2026-05-05 12:35 -2.93773 104.79440 1880 ft 176 kts 293°
2026-05-05 12:36 -2.93323 104.78367 1613 ft 160 kts 292°
2026-05-05 12:36 -2.92907 104.77372 1400 ft 151 kts 292°
2026-05-05 12:36 -2.92510 104.76422 1204 ft 145 kts 292°
2026-05-05 12:36 -2.92133 104.75515 1007 ft 136 kts 292°
2026-05-05 12:37 -2.91780 104.74673 841 ft 131 kts 292°
2026-05-05 12:37 -2.91430 104.73834 671 ft 130 kts 293°
2026-05-05 12:37 -2.91082 104.73004 492 ft 129 kts 293°
2026-05-05 12:37 -2.90736 104.72176 327 ft 128 kts 293°
2026-05-05 12:38 -2.90398 104.71354 149 ft 128 kts 291°
2026-05-05 12:38 -2.90069 104.70554 38 ft 112 kts 293°
2026-05-05 12:38 -2.89827 104.69983 40 ft 61 kts 293°
2026-05-05 12:38 -2.89692 104.69663 41 ft 47 kts 293°
2026-05-05 12:39 -2.89581 104.69403 41 ft 34 kts 293°
2026-05-05 12:39 -2.89513 104.69250 44 ft 13 kts 305°
2026-05-05 12:39 -2.89457 104.69224 44 ft 12 kts 359°
2026-05-05 12:39 -2.89364 104.69286 45 ft 14 kts 71°
2026-05-05 12:40 -2.89381 104.69348 45 ft 15 kts 111°
2026-05-05 12:40 -2.89427 104.69459 41 ft 19 kts 113°
2026-05-05 12:40 -2.89485 104.69594 43 ft 23 kts 113°
2026-05-05 12:40 -2.89550 104.69752 42 ft 26 kts 113°
2026-05-05 12:41 -2.89627 104.69928 41 ft 29 kts 114°
2026-05-05 12:41 -2.89707 104.70124 40 ft 32 kts 112°
2026-05-05 12:41 -2.89694 104.70227 39 ft 14 kts 33°
2026-05-05 12:41 -2.89623 104.70298 37 ft 16 kts 21°
2026-05-05 12:42 -2.89568 104.70315 39 ft 0 kts 20°
2026-05-05 12:50 -2.89569 104.70315 39 ft 1 kts 20°
2026-05-05 12:50 -2.89591 104.70305 39 ft 4 kts 36°
2026-05-05 12:51 -2.89610 104.70287 37 ft 4 kts 56°
2026-05-05 12:51 -2.89618 104.70274 39 ft 1 kts 61°